STARLINK-35411

Last updated on Wed Dec 31 2025 00:02:06 GMT+0000 (Coordinated Universal Time)

1 66560U 25268D 25364.58335648 .00052713 00000+0 19137-2 0 9998 2 66560 43.0003 17.3914 0001227 277.1403 321.3560 15.27541010 6020
UTC large
Height (km)
Speed (km/s)
/
Latitude / Longitude
Inclination (degrees)
Orbital Period (minutes)
Azimuth
Elevation
Range (km)
Doppler Factor

Next 0 passes for location: London (51.5072 / 0.1276)

Sorry there are no passes over London.